Weather reports worldwide

Advertisment
Chadron, ne, United States of America (2074327): temperature & dewpoint: 13.05.2019 13:00:00 - 19.05.2019 13:00:00 (MDT)Chadron, ne, United States of America (2074327): wind speed & gusts: 13.05.2019 13:00:00 - 19.05.2019 13:00:00 (MDT)Chadron, ne, United States of America (2074327): wind direction: 13.05.2019 13:00:00 - 19.05.2019 13:00:00 (MDT)Chadron, ne, United States of America (2074327): reduced air pressure: 13.05.2019 13:00:00 - 19.05.2019 13:00:00 (MDT)Chadron, ne, United States of America (2074327): visibility: 13.05.2019 13:00:00 - 19.05.2019 13:00:00 (MDT)Chadron, ne, United States of America (2074327): precipitation: 13.05.2019 13:00:00 - 19.05.2019 13:00:00 (MDT)
Date & Time tt [°C] td [°C] ff [km/h] ff [kn] fx [km/h] fx [kn] dd ppp [hPa] vv [km] rr [mm]
19.05.2019 13:00:00 7,8 1,7 22 12 - - NE 1019,2 16 -
19.05.2019 12:00:00 6,7 1,1 18 10 - - N 1019,2 16 -
19.05.2019 11:00:00 6,1 1,1 18 10 - - NNE 1018,9 16 -
19.05.2019 10:00:00 4,4 1,1 18 10 - - N 1019,7 16 -
19.05.2019 09:00:00 3,9 1,1 16 9 - - N 1019,6 16 -
19.05.2019 08:00:00 3,3 1,1 13 7 - - NW 1019,2 16 -
19.05.2019 07:00:00 3,3 0,0 13 7 - - N 1018,9 16 -
19.05.2019 06:00:00 2,8 1,1 9 5 - - NW 1018,3 16 -
19.05.2019 05:00:00 2,8 0,6 9 5 - - NW 1017,4 16 -
19.05.2019 04:00:00 2,8 0,0 9 5 - - NNW 1017,2 16 -
19.05.2019 03:00:00 2,8 0,6 13 7 - - NNW 1016,6 16 -
19.05.2019 02:00:00 2,8 0,6 21 11 - - N 1016,4 16 -
19.05.2019 01:00:00 2,8 1,1 15 8 - - N 1015,5 16 -
19.05.2019 00:00:00 2,8 1,1 22 12 - - NNW 1015,2 16 0,0
18.05.2019 23:00:00 2,8 1,7 13 7 - - NNW 1015,2 16 0,3
18.05.2019 22:00:00 3,3 2,2 18 10 - - N 1015,6 13 0,8
18.05.2019 21:00:00 3,3 2,2 18 10 - - N 1014,9 10 0,3
18.05.2019 20:00:00 4,4 2,8 21 11 - - NW 1013,9 16 0,0
18.05.2019 19:00:00 4,4 2,8 26 14 - - WNW 1013,4 16 0,0
18.05.2019 18:00:00 4,4 2,2 34 18 52 28 WNW 1012,8 16 0,0
18.05.2019 17:00:00 6,7 2,2 34 18 52 28 WNW 1011,8 16 -
18.05.2019 16:00:00 8,3 2,8 26 14 - - NW 1010,6 16 -
18.05.2019 15:00:00 9,4 3,9 28 15 48 26 NNW 1009,9 10 -
18.05.2019 14:00:00 9,4 4,4 31 17 - - NW 1009,5 16 -
18.05.2019 13:00:00 10,0 5,0 28 15 - - NW 1008,5 16 -
18.05.2019 12:00:00 8,9 5,6 8 4 - - NNW 1008,5 16 -
18.05.2019 11:00:00 7,8 5,6 8 4 - - NW 1007,9 16 -
18.05.2019 10:00:00 6,7 4,4 5 3 - - NW 1008,1 16 -
18.05.2019 09:00:00 5,6 4,4 5 3 - - N 1008,4 16 -
18.05.2019 08:00:00 5,0 3,9 0 0 - - N 1007,9 15 -
18.05.2019 07:00:00 4,4 4,4 8 4 - - NNE 1007,1 8 -
18.05.2019 06:00:00 4,4 3,9 15 8 - - NNE 1006,3 16 -
18.05.2019 05:00:00 5,0 4,4 11 6 - - NNE 1005,8 15 -
18.05.2019 04:00:00 5,6 5,0 16 9 - - N 1005,3 13 -
18.05.2019 03:00:00 5,6 5,6 18 10 - - NNE 1004,6 6 -
18.05.2019 02:00:00 6,1 6,1 18 10 - - N 1005,1 8 -
18.05.2019 01:00:00 6,7 6,7 8 4 - - NNW 1006,4 16 -
18.05.2019 00:00:00 6,7 6,7 5 3 - - N 1005,8 13 0,3
17.05.2019 23:00:00 7,2 6,7 0 0 - - N 1005,7 16 0,0
17.05.2019 22:00:00 6,7 6,1 15 8 - - NNE 1004,7 16 -
17.05.2019 21:00:00 6,7 6,1 16 9 - - N 1004,1 16 1,3
17.05.2019 20:00:00 7,2 6,1 5 3 - - SSW 1007,1 6 0,8
17.05.2019 19:00:00 7,2 6,7 11 6 - - NNW 1005,7 8 0,5
17.05.2019 18:00:00 7,2 6,7 18 10 - - N 1004,4 16 -
17.05.2019 17:00:00 7,8 6,7 26 14 - - N 1004,1 8 0,0
17.05.2019 16:00:00 7,2 6,7 21 11 - - N 1005,8 3,2 0,0
17.05.2019 15:00:00 6,7 6,1 15 8 - - NNE 1005,5 3,2 0,3
17.05.2019 14:00:00 6,7 6,1 22 12 - - NNE 1005,3 2,8 0,0
17.05.2019 13:00:00 6,7 6,1 18 10 - - NNE 1005,7 4,8 0,0
17.05.2019 12:00:00 6,1 5,6 21 11 - - NE 1006,1 3,2 0,0
17.05.2019 11:00:00 6,1 5,6 22 12 - - NNE 1005,9 2,4 0,0
17.05.2019 10:00:00 6,1 5,6 24 13 - - NNE 1005,7 2,0 0,0
17.05.2019 09:00:00 6,1 5,6 22 12 - - NNE 1006,2 2,8 0,0
17.05.2019 08:00:00 7,8 6,7 22 12 - - NNE 1004,8 15 -
17.05.2019 07:00:00 8,3 7,2 31 17 - - NE 1004,4 16 0,0
17.05.2019 06:00:00 8,9 7,8 18 10 - - NNE 1005,5 16 -
17.05.2019 05:00:00 10,0 8,3 21 11 - - NE 1004,3 16 -
17.05.2019 04:00:00 10,6 9,4 21 11 - - NE 1004,4 16 -
17.05.2019 03:00:00 11,1 10,0 24 13 - - NE 1004,8 16 -
17.05.2019 02:00:00 11,7 10,6 29 16 - - NE 1005,2 16 -
17.05.2019 01:00:00 11,7 10,6 31 17 - - ENE 1006,0 16 0,0
17.05.2019 00:00:00 12,2 11,1 18 10 59 32 NE 1007,8 16 0,0
16.05.2019 23:00:00 13,3 11,1 16 9 - - NNE 1008,9 16 -
16.05.2019 22:00:00 14,4 11,7 28 15 - - ENE 1005,6 10 -
16.05.2019 21:00:00 13,3 11,1 24 13 - - NNE 1007,3 16 -
16.05.2019 20:00:00 17,2 12,2 29 16 - - NE 1005,3 16 -
16.05.2019 19:00:00 21,1 12,8 26 14 52 28 NE 1004,9 16 -
16.05.2019 18:00:00 22,8 13,3 39 21 48 26 ENE 1005,4 16 -
16.05.2019 17:00:00 23,3 12,2 28 15 - - ENE 1006,7 16 -
16.05.2019 16:00:00 23,9 12,8 26 14 - - ENE 1006,7 16 -
16.05.2019 15:00:00 22,8 12,8 21 11 - - ENE 1007,6 16 -
16.05.2019 14:00:00 21,7 12,2 22 12 - - NE 1008,3 16 -
16.05.2019 13:00:00 21,1 12,2 26 14 - - ENE 1008,7 16 -
16.05.2019 12:00:00 18,9 11,7 28 15 50 27 ENE 1009,6 16 -
16.05.2019 11:00:00 18,3 12,2 31 17 - - N 1010,3 16 -
16.05.2019 10:00:00 17,2 12,2 24 13 - - N 1010,0 16 -
16.05.2019 09:00:00 17,2 11,7 18 10 - - NE 1009,3 16 -
16.05.2019 08:00:00 16,7 11,7 28 15 - - NE 1009,7 16 -
16.05.2019 07:00:00 13,3 10,6 5 3 - - NE 1009,2 16 -
16.05.2019 06:00:00 9,4 8,9 9 5 - - WSW 1008,5 16 -
16.05.2019 05:00:00 9,4 8,3 0 0 - - N 1008,0 16 -
16.05.2019 04:00:00 10,6 10,0 5 3 - - NE 1007,0 16 -
16.05.2019 03:00:00 11,1 10,6 0 0 - - N 1006,3 16 -
16.05.2019 02:00:00 12,2 10,6 0 0 - - N 1006,3 16 -
16.05.2019 01:00:00 12,8 11,1 5 3 - - N 1006,7 16 -
16.05.2019 00:00:00 13,9 11,7 5 3 - - - 1006,9 16 -
15.05.2019 23:00:00 13,9 11,1 11 6 - - SSE 1007,4 16 -
15.05.2019 22:00:00 16,1 11,1 8 4 - - SSE 1007,0 16 -
15.05.2019 21:00:00 18,3 12,2 8 4 - - SE 1007,0 16 -
15.05.2019 20:00:00 18,3 11,1 0 0 - - N 1006,7 16 -
15.05.2019 19:00:00 21,7 13,3 0 0 - - N 1007,0 16 -
15.05.2019 18:00:00 23,3 9,4 5 3 - - - 1007,7 16 -
15.05.2019 17:00:00 22,2 8,3 21 11 - - NW 1007,8 16 -
15.05.2019 16:00:00 26,1 6,7 28 15 81 44 S 1007,1 16 0,0
15.05.2019 15:00:00 28,9 9,4 0 0 - - N 1006,7 16 -
15.05.2019 14:00:00 28,9 9,4 8 4 - - NNW 1007,2 16 -
15.05.2019 13:00:00 27,8 9,4 8 4 - - - 1007,9 16 -
15.05.2019 12:00:00 26,7 9,4 11 6 - - SW 1008,9 16 -
15.05.2019 11:00:00 25,6 10,6 15 8 - - WSW 1009,9 16 -
15.05.2019 10:00:00 23,3 10,6 11 6 - - SW 1010,7 16 -
15.05.2019 09:00:00 21,1 10,6 11 6 - - SSW 1010,9 16 -
15.05.2019 08:00:00 17,8 10,6 9 5 - - SW 1011,1 16 -
15.05.2019 07:00:00 13,9 9,4 9 5 - - SSW 1011,8 16 -
15.05.2019 06:00:00 9,4 7,8 8 4 - - SSW 1012,0 16 -
15.05.2019 05:00:00 12,2 8,3 8 4 - - SSW 1011,3 16 -
15.05.2019 04:00:00 11,7 7,8 9 5 - - SSW 1011,5 16 -
15.05.2019 03:00:00 12,8 8,9 0 0 - - N 1011,7 16 -
15.05.2019 02:00:00 13,9 8,9 0 0 - - N 1011,2 16 -
15.05.2019 01:00:00 16,1 9,4 15 8 - - SSE 1011,3 16 -
15.05.2019 00:00:00 15,0 9,4 8 4 - - SSE 1012,3 16 -
14.05.2019 23:00:00 13,3 10,6 8 4 - - W 1013,5 16 -
14.05.2019 22:00:00 14,4 11,1 13 7 - - N 1013,5 16 -
14.05.2019 21:00:00 17,8 10,0 26 14 - - E 1012,2 16 -
14.05.2019 20:00:00 20,6 8,9 16 9 61 33 ENE 1012,2 16 0,0
14.05.2019 19:00:00 21,1 10,0 9 5 - - NE 1011,7 16 -
14.05.2019 18:00:00 23,9 7,2 16 9 - - ESE 1010,4 16 -
14.05.2019 17:00:00 26,7 8,3 22 12 - - SE 1009,9 16 -
14.05.2019 16:00:00 27,8 6,7 24 13 - - S 1009,9 16 -
14.05.2019 15:00:00 27,8 8,9 21 11 - - ENE 1010,4 16 -
14.05.2019 14:00:00 27,2 11,1 21 11 - - ENE 1011,5 16 -
14.05.2019 13:00:00 26,7 10,6 18 10 - - NE 1012,0 16 -
14.05.2019 12:00:00 25,6 10,0 13 7 - - NE 1012,8 16 -
14.05.2019 11:00:00 22,2 13,3 16 9 - - NNE 1013,1 16 -
14.05.2019 10:00:00 21,1 10,6 0 0 - - N 1012,7 16 -
14.05.2019 09:00:00 17,2 10,0 5 3 - - SW 1013,3 16 -
14.05.2019 08:00:00 12,2 8,9 8 4 - - SW 1013,5 16 -
14.05.2019 07:00:00 8,9 7,2 0 0 - - N 1013,0 16 -
14.05.2019 06:00:00 6,7 5,6 8 4 - - SSW 1012,3 16 -
14.05.2019 05:00:00 6,1 5,0 8 4 - - WSW 1012,1 16 -
14.05.2019 04:00:00 7,8 5,6 8 4 - - SW 1011,4 16 -
14.05.2019 03:00:00 7,8 6,1 9 5 - - WSW 1011,0 16 -
14.05.2019 02:00:00 8,3 6,7 8 4 - - WSW 1010,8 16 -
14.05.2019 01:00:00 9,4 7,8 11 6 - - WSW 1010,5 16 -
14.05.2019 00:00:00 10,0 7,2 0 0 - - N 1010,3 16 -
13.05.2019 23:00:00 12,2 8,9 8 4 - - WSW 1009,9 16 -
13.05.2019 22:00:00 15,6 9,4 5 3 - - SW 1009,1 16 -
13.05.2019 21:00:00 16,1 10,6 18 10 - - WSW 1008,4 16 -
13.05.2019 20:00:00 20,0 10,6 15 8 - - WSW 1007,4 16 -
13.05.2019 19:00:00 23,3 11,7 16 9 - - WSW 1007,3 16 -
13.05.2019 18:00:00 26,1 8,9 13 7 - - E 1007,4 16 -
13.05.2019 17:00:00 27,2 5,0 21 11 - - WNW 1007,1 16 -
13.05.2019 16:00:00 27,2 6,7 21 11 - - WNW 1006,8 16 -
13.05.2019 15:00:00 27,8 6,1 22 12 - - W 1007,2 16 -
13.05.2019 14:00:00 26,1 5,0 8 4 - - - 1007,8 16 -
13.05.2019 13:00:00 25,6 5,6 5 3 - - - 1008,2 16 -

tt = temperature
td = dewpoint
ff = wind speed
fx = gusts
dd = wind direction
ppp = reduced air pressure
vv = visibility
rr = precipitation

Next stations